Temp
12 12 13 12 11 11 10 10 10 11 10 10 10 10 9 9 9 9 10 10 9 8 8 6 7 7 7 7 7 7 8 8 8 9 9 9 9 8
11 12 12 11 10 11 10 10 11 10 10 10 10 9 9 9 10 10 10 9 9 8 7 6 6 6 7 7 7 8 8 7 8 8 9 9 9 8
12 12 11 10 12 12 11 11 12 11 11 10 9 9 9 9 9 9 9 9 9 8 7 6 6 6 6 7 7 7 7 7 7 8 8 8 8 8
11 12 10 10 12 11 11 11 11 11 10 9 9 9 9 9 9 8 8 8 8 7 6 6 6 6 6 7 6 6 6 6 7 6 6 7 7 6
11 11 10 10 12 11 12 11 10 10 10 9 9 8 9 8 8 8 8 7 7 6 5 3 5 5 5 5 5 5 5 5 6 6 6 6 4 6
10 11 10 11 11 11 11 10 10 10 9 9 8 8 8 8 8 7 7 7 6 5 4 4 4 5 5 4 4 4 5 5 5 6 6 6 5 4
10 10 10 9 10 11 10 10 9 9 9 8 8 9 8 7 7 6 6 5 5 4 3 3 4 4 4 4 4 4 4 4 4 4 4 5 3 3
9 9 9 9 9 10 10 8 8 8 8 8 7 7 7 7 6 5 5 4 4 3 2 3 3 3 3 3 2 2 3 3 3 2 2 2 3 3
9 9 9 8 9 10 9 8 8 8 7 7 7 6 6 5 4 4 3 3 3 2 1 2 2 3 3 2 2 2 2 2 2 2 2 2 1 2
8 8 9 9 9 8 8 8 8 7 7 6 5 5 4 3 3 2 2 2 2 2 1 1 2 2 2 2 2 2 2 2 1 1 1 1 1 1
7 7 8 8 7 7 8 7 7 6 6 5 4 4 3 3 3 2 2 2 2 2 1 -0 1 1 1 1 2 2 1 1 1 0 0 0 0 0
6 6 6 6 7 7 6 6 6 6 5 4 4 3 3 2 2 1 2 2 1 -1 -0 -1 -0 0 0 1 1 1 1 1 0 -0 -0 -1 -1 -1
5 5 5 6 6 5 5 5 5 5 4 4 3 2 2 1 1 1 1 1 0 -1 -1 -1 -1 -1 -1 0 0 0 0 -0 -0 -1 -1 -1 -1 -1
4 4 4 4 5 5 5 4 5 4 4 3 3 2 1 1 0 0 -0 -0 -0 -0 -1 -1 -2 -2 -1 -1 -1 -1 -1 -1 -1 -1 -2 -2 -2 -1
3 3 3 2 3 4 4 3 3 3 3 3 2 1 1 -0 -0 -1 -0 -0 -1 -1 -1 -2 -2 -3 -3 -2 -2 -2 -2 -1 -1 -2 -2 -2 -2 -3
2 2 1 1 1 2 2 3 3 3 2 2 1 -0 -0 -0 -1 -0 -1 -1 -1 -1 -2 -2 -2 -2 -2 -4 -3 -3 -3 -2 -2 -2 -2 -2 -2 -2
0 -0 -0 -0 0 1 1 1 1 1 1 1 -0 -1 -1 -1 -1 -2 -2 -2 -2 -2 -2 -2 -3 -3 -3 -3 -3 -3 -2 -2 -3 -3 -2 -2 -2 -2
-0 -0 -1 -1 -1 -1 -1 -1 -1 -1 -1 -1 -1 -2 -2 -2 -2 -3 -3 -3 -3 -3 -3 -3 -3 -4 -3 -3 -3 -3 -3 -2 -3 -3 -3 -2 -2 -2
-2 -1 -1 -1 -1 -1 -1 -1 -1 -1 -1 -1 -2 -3 -3 -3 -3 -3 -3 -3 -3 -3 -3 -4 -3 -4 -4 -4 -3 -3 -3 -3 -3 -3 -3 -3 -2 -2
-2 -2 -2 -2 -2 -2 -2 -2 -2 -2 -2 -2 -2 -3 -3 -4 -4 -3 -3 -3 -4 -3 -4 -4 -4 -4 -4 -5 -5 -4 -3 -3 -3 -3 -3 -3 -3 -3
-3 -3 -2 -2 -2 -2 -2 -2 -2 -2 -2 -3 -3 -3 -3 -4 -4 -4 -4 -4 -4 -4 -4 -4 -5 -6 -5 -5 -5 -3 -4 -4 -4 -3 -3 -3 -3 -2
-3 -3 -3 -3 -2 -2 -3 -2 -2 -2 -2 -3 -3 -3 -3 -4 -4 -4 -4 -4 -4 -4 -4 -5 -6 -6 -5 -5 -4 -4 -4 -4 -4 -4 -4 -4 -4 -3
-4 -4 -4 -4 -4 -3 -3 -3 -3 -3 -3 -3 -3 -3 -3 -4 -4 -4 -4 -4 -5 -5 -5 -5 -5 -5 -5 -5 -5 -4 -4 -4 -4 -4 -4 -4 -4 -4
Height
1536 1539 1540 1542 1543 1546 1552 1552 1552 1553 1553 1553 1552 1552 1551 1551 1551 1550 1549 1549 1548 1547 1545 1545 1545 1546 1547 1546 1547 1548 1544 1542 1540 1538 1536 1532 1530 1531
1532 1534 1536 1538 1536 1540 1548 1548 1547 1550 1550 1549 1549 1549 1547 1546 1546 1545 1543 1542 1542 1542 1541 1540 1541 1541 1541 1541 1541 1540 1540 1540 1536 1535 1534 1528 1527 1526
1527 1529 1531 1533 1531 1536 1540 1542 1540 1542 1543 1544 1543 1544 1543 1542 1542 1540 1539 1538 1537 1537 1536 1535 1533 1534 1535 1535 1536 1537 1537 1537 1534 1530 1527 1523 1525 1525
1522 1521 1527 1528 1525 1533 1534 1538 1536 1536 1539 1539 1538 1538 1538 1537 1537 1536 1535 1533 1532 1530 1530 1530 1530 1530 1531 1531 1531 1533 1533 1532 1533 1534 1529 1528 1528 1526
1516 1516 1521 1522 1519 1525 1528 1530 1532 1533 1534 1534 1535 1535 1533 1532 1532 1530 1529 1529 1527 1525 1524 1524 1526 1525 1526 1528 1529 1527 1529 1528 1527 1530 1533 1532 1530 1530
1510 1510 1513 1515 1515 1517 1521 1524 1527 1526 1529 1528 1529 1530 1529 1527 1526 1525 1524 1523 1522 1520 1518 1519 1521 1521 1520 1524 1525 1525 1526 1527 1527 1527 1530 1532 1531 1531
1503 1505 1506 1508 1508 1508 1513 1517 1519 1519 1521 1521 1521 1521 1522 1520 1519 1519 1521 1519 1517 1516 1516 1515 1516 1516 1515 1517 1519 1518 1520 1521 1521 1523 1521 1525 1528 1531
1489 1492 1497 1498 1502 1503 1507 1512 1514 1514 1514 1516 1517 1516 1515 1515 1514 1512 1514 1515 1513 1511 1512 1512 1513 1511 1511 1513 1514 1517 1517 1516 1517 1521 1520 1523 1527 1526
1481 1482 1485 1490 1496 1499 1503 1505 1507 1508 1508 1509 1508 1507 1508 1507 1509 1507 1509 1510 1509 1508 1509 1508 1509 1510 1508 1510 1508 1507 1512 1511 1517 1516 1518 1519 1520 1524
1478 1477 1482 1488 1492 1494 1496 1499 1500 1502 1503 1502 1504 1501 1502 1503 1504 1504 1506 1505 1506 1506 1505 1506 1506 1506 1509 1508 1507 1507 1507 1505 1506 1512 1514 1514 1516 1518
1476 1479 1482 1484 1488 1490 1491 1493 1495 1495 1496 1496 1498 1495 1494 1496 1497 1499 1500 1501 1501 1501 1501 1501 1499 1500 1502 1502 1504 1505 1504 1503 1503 1506 1508 1510 1510 1514
1476 1476 1478 1481 1483 1486 1486 1487 1488 1488 1490 1490 1487 1490 1490 1490 1490 1494 1493 1493 1495 1496 1498 1501 1500 1498 1499 1496 1495 1499 1500 1498 1499 1501 1503 1505 1506 1509
1472 1474 1474 1475 1478 1481 1482 1481 1482 1483 1484 1483 1485 1485 1486 1486 1486 1487 1489 1489 1490 1490 1491 1492 1498 1496 1495 1495 1493 1497 1495 1495 1496 1496 1499 1500 1502 1504
1471 1472 1473 1475 1474 1474 1475 1477 1476 1477 1475 1477 1477 1478 1479 1481 1480 1480 1482 1483 1486 1486 1487 1487 1485 1491 1486 1490 1490 1491 1491 1489 1490 1493 1495 1496 1498 1499
1467 1467 1468 1472 1470 1471 1471 1473 1473 1474 1474 1473 1474 1473 1473 1474 1476 1477 1476 1478 1479 1482 1484 1484 1485 1485 1486 1484 1487 1488 1485 1486 1486 1488 1491 1492 1493 1494
1461 1462 1464 1466 1467 1467 1466 1465 1466 1468 1469 1468 1468 1467 1469 1469 1470 1471 1472 1474 1475 1475 1476 1477 1477 1483 1477 1480 1478 1482 1480 1480 1482 1484 1486 1486 1487 1489
1456 1455 1456 1456 1457 1459 1458 1459 1460 1460 1462 1464 1465 1462 1462 1462 1466 1467 1468 1470 1471 1472 1471 1472 1474 1474 1472 1475 1475 1475 1476 1475 1477 1479 1480 1481 1483 1485
1448 1449 1449 1448 1449 1450 1452 1452 1453 1453 1455 1456 1459 1458 1458 1458 1459 1462 1462 1465 1466 1469 1467 1463 1467 1468 1463 1469 1468 1470 1470 1469 1472 1474 1475 1477 1479 1481
1443 1441 1443 1442 1442 1443 1442 1444 1444 1447 1447 1448 1451 1454 1452 1453 1456 1456 1457 1457 1462 1464 1463 1458 1462 1460 1459 1465 1463 1465 1463 1464 1466 1467 1470 1473 1476 1478
1439 1439 1439 1438 1436 1436 1435 1436 1438 1439 1440 1442 1445 1447 1447 1449 1451 1450 1452 1452 1455 1458 1457 1457 1456 1456 1457 1459 1459 1460 1459 1460 1461 1463 1467 1469 1472 1474
1435 1435 1434 1432 1431 1430 1430 1429 1430 1432 1435 1437 1439 1441 1443 1442 1444 1446 1446 1448 1449 1451 1452 1453 1454 1452 1452 1452 1454 1455 1456 1456 1458 1460 1462 1464 1467 1469
1429 1428 1427 1425 1424 1424 1424 1423 1425 1426 1427 1430 1433 1434 1435 1438 1439 1440 1440 1441 1443 1445 1446 1449 1449 1448 1447 1447 1449 1450 1451 1453 1454 1456 1458 1461 1463 1464
1423 1422 1421 1419 1418 1417 1417 1418 1418 1418 1421 1422 1426 1428 1430 1432 1434 1434 1435 1436 1437 1438 1441 1443 1443 1443 1442 1443 1444 1446 1447 1449 1450 1451 1454 1457 1458 1460
Wind_Speed
28 23 19 15 13 8 15 15 11 9 12 11 11 10 10 11 14 15 15 15 13 15 15 9 9 13 15 16 14 19 21 21 21 23 22 25 21 21
27 22 18 17 11 9 17 15 11 13 12 13 12 13 13 16 17 15 16 15 15 14 13 11 12 12 15 17 18 20 22 21 19 23 28 24 19 17
25 20 17 19 9 11 13 13 12 14 14 16 16 16 16 16 16 17 17 17 16 15 14 13 14 16 18 18 19 20 19 16 16 20 18 8 7 12
27 20 19 15 8 13 13 16 15 15 16 14 14 15 15 16 17 17 17 17 17 15 15 16 16 17 17 18 17 15 15 13 13 11 12 9 8 14
23 21 22 20 18 19 19 18 17 16 15 13 14 15 16 17 17 16 16 16 17 17 16 16 16 16 16 16 15 15 13 11 7 8 10 4 5 19
27 25 26 24 26 25 21 20 19 16 15 15 16 17 18 17 18 17 16 16 15 15 13 13 15 16 17 15 14 12 14 10 8 6 8 16 13 10
27 26 27 30 32 25 26 23 21 17 16 17 19 19 19 18 17 18 18 16 13 12 12 13 16 16 15 16 17 17 14 12 11 9 9 16 15 15
35 28 30 27 26 25 26 23 19 17 17 19 19 20 18 18 18 16 15 15 11 10 10 12 13 15 17 18 15 14 13 11 13 12 9 12 16 14
42 33 23 25 23 24 23 21 19 19 19 20 21 19 18 16 16 14 14 13 11 10 13 13 14 15 14 16 16 14 14 13 15 15 12 14 16 14
28 23 20 23 26 23 20 19 19 19 20 20 19 17 16 16 14 13 14 13 12 11 12 16 14 14 15 15 15 16 16 16 16 16 14 14 18 17
16 19 22 22 21 19 18 19 19 18 18 17 17 16 15 15 14 14 13 13 12 11 11 13 13 15 16 15 15 16 17 17 16 16 15 16 18 19
19 19 18 19 19 20 19 18 16 14 13 13 14 15 15 14 13 14 14 13 12 11 10 11 14 12 10 15 15 17 17 16 15 16 15 17 16 17
19 20 21 21 23 20 17 14 13 12 12 12 13 14 15 15 14 14 14 13 13 13 12 12 14 12 11 12 10 9 11 12 13 14 17 18 18 18
19 19 20 23 22 20 18 17 15 14 13 14 14 14 14 14 14 14 14 14 16 16 17 17 19 17 14 16 15 14 12 12 13 14 16 18 19 19
22 22 22 24 22 22 21 19 18 17 16 15 14 14 14 14 14 14 14 15 16 17 17 17 18 18 17 18 17 15 13 12 11 13 13 17 19 19
22 24 25 26 25 24 24 23 22 20 18 16 14 15 16 13 14 14 15 16 17 17 17 17 17 19 19 20 19 19 16 11 6 10 15 17 20 20
18 22 26 27 28 29 29 26 25 24 21 17 16 15 16 15 16 16 15 16 17 16 15 16 17 17 18 20 21 20 16 15 14 15 16 13 19 19
21 23 25 28 30 32 32 30 27 27 22 18 19 17 17 17 17 18 17 17 17 17 15 15 16 17 15 18 17 16 16 16 15 16 16 14 16 20
19 22 25 26 28 31 31 30 28 27 23 21 21 19 18 18 20 19 18 17 17 16 14 14 16 15 14 16 13 11 9 13 16 16 16 17 14 11
16 18 21 23 24 25 25 25 26 25 23 21 21 19 18 20 22 21 19 16 14 13 14 14 14 13 14 12 12 9 8 8 11 14 16 16 17 17
19 20 20 20 19 19 20 21 22 22 22 23 21 20 19 19 22 22 19 17 16 15 13 11 10 12 14 16 16 11 10 12 11 11 13 17 19 21
17 21 23 23 22 20 18 17 20 22 23 24 25 22 20 18 17 19 18 18 18 15 11 10 12 12 13 15 13 11 10 12 14 14 15 14 14 11
17 18 18 20 21 21 19 18 18 19 23 23 24 23 21 21 20 17 16 17 19 18 16 13 13 15 14 13 13 13 13 12 15 16 17 14 15 18
Wind_Direction
208 206 212 218 208 222 226 228 232 244 239 246 243 248 256 273 284 293 295 295 294 292 296 292 262 265 274 272 285 291 302 299 302 302 298 293 283 245
208 212 215 210 204 223 227 229 241 254 253 243 249 247 259 279 291 298 295 295 290 283 285 269 258 261 260 272 281 288 293 294 303 312 316 296 275 238
210 211 210 201 206 225 230 240 247 251 251 246 240 255 273 286 295 299 301 298 293 281 275 268 254 257 265 271 285 283 283 295 304 312 348 340 231 198
210 205 210 208 220 238 244 248 247 244 242 239 249 260 274 284 292 296 296 295 294 289 267 259 257 257 262 266 274 281 288 289 301 307 352 276 203 197
212 214 223 230 246 256 257 248 238 240 242 251 264 268 275 282 287 290 294 297 292 286 281 265 261 261 261 272 272 276 282 274 283 286 287 274 98 178
217 224 230 240 244 234 252 243 243 240 245 250 258 267 277 285 287 291 293 294 295 285 271 263 264 258 257 265 270 272 272 264 266 255 292 279 269 273
224 234 247 249 246 233 243 239 236 239 244 253 260 270 277 283 285 287 292 296 301 294 272 263 257 259 257 255 261 258 251 255 267 267 268 272 267 263
233 248 254 253 231 224 229 229 238 247 255 262 268 271 276 277 277 280 288 292 301 303 279 267 262 256 256 254 256 253 253 248 261 260 267 277 255 253
240 232 235 214 220 224 224 229 239 249 256 262 264 268 269 271 270 276 279 284 294 296 286 275 271 269 264 253 246 241 250 249 258 254 253 259 245 246
217 215 212 225 226 223 225 234 242 251 258 263 266 266 268 265 268 270 274 281 284 286 283 282 277 272 266 261 257 255 253 249 250 255 254 253 243 232
223 218 218 219 221 225 234 239 244 251 260 265 269 272 269 268 264 259 265 271 278 280 279 275 279 275 268 262 261 257 253 249 249 254 256 254 243 232
230 221 225 225 228 236 241 243 248 251 257 266 273 269 265 261 253 255 259 260 266 282 287 272 282 275 277 264 256 253 250 249 253 255 253 252 245 241
251 252 244 241 238 235 238 236 237 248 263 275 274 268 262 255 252 253 255 256 256 251 250 260 269 269 264 266 265 252 241 249 264 258 251 244 245 241
249 252 246 241 235 234 232 235 243 253 258 261 263 263 256 251 247 250 254 256 258 261 258 249 248 258 259 265 262 255 249 262 270 253 246 241 241 244
260 256 253 249 246 239 236 242 252 258 262 264 261 255 249 244 250 253 255 258 258 259 258 259 260 255 251 254 262 257 255 270 264 251 250 242 240 239
256 253 249 247 248 244 244 245 250 254 259 260 262 250 247 243 248 255 256 258 258 255 256 256 253 259 255 250 246 254 254 256 256 256 251 245 231 230
269 260 255 251 248 247 246 246 248 246 251 256 261 252 243 244 248 252 252 255 259 259 255 256 255 252 252 256 254 257 254 251 254 258 255 261 230 228
267 264 261 260 258 257 258 260 257 246 245 248 255 258 250 242 243 247 250 256 263 260 256 250 252 250 253 256 259 259 253 251 245 247 246 249 236 230
273 274 274 272 270 266 264 263 257 248 246 241 249 254 253 243 240 243 248 255 263 260 251 248 249 246 251 258 249 248 252 244 239 236 243 244 242 236
281 279 281 281 278 274 271 267 257 250 236 234 244 247 252 250 243 241 243 250 258 258 252 251 253 253 250 261 253 239 237 250 250 241 243 244 244 238
282 281 284 289 291 284 276 268 254 244 238 237 237 238 242 251 250 241 238 244 249 252 254 259 256 241 236 246 259 255 243 249 247 249 247 248 245 244
286 285 284 280 279 277 276 268 256 247 243 242 240 237 239 243 249 243 242 244 248 253 250 227 234 244 249 256 267 270 250 244 249 244 246 250 248 243
291 293 293 287 282 277 272 267 257 250 245 242 241 242 239 241 244 246 246 247 246 245 247 243 238 245 255 262 270 270 266 256 251 250 248 245 244 241